Starlink 32317

operational
NORAD ID: 60918 Int'l Des: 2024-154 Owner: SPXS Country: US Constellation: starlink
LEOCIRCULAR

关于 Starlink 32317

正在加载描述...

实时位置

正在加载3D地球...

即将过境

高度历史

Altitude vs Time

uPlot chart will show altitude changes over time

两行轨道根数

1 60918U 24154R 25259.57751526 -.00001824 00000-0 -49505-4 0 9995
2 60918 53.1628 12.8586 0001229 100.9279 259.1860 15.30177049 59678
Epoch: Sep 16, 2025 • Age: 9 hours

当前状态

高度 494.2 km
速度 7.62 km/s
星下点 -52.33°S, 72.74°W
发射日期 Aug 31, 2024
运行时间 1 years
类型 internet

技术详情

分类 Payload
质量 730.00 kg
干质量 700.00 kg
总质量 730.00 kg
长度 0.30 m
直径 4.10 m
跨度 29.00 m
形状 Box + pan
制造商 SPXS
平台类型 Starlink V2M
阶段状态 In Orbit
所有者/国家 SPXS/US

大型星座

Loading constellations...